Temperature
19 19 19 19 18 17 19 19 19 19 19 20 20 19 19 18 18 18 18 18 18 18 18 18 18 18 18 18 18 18 18 18 17 17 17 17 17 17 17 17 17 17 17 17 17 17 17 17 17
19 19 19 19 17 18 19 19 19 20 20 20 20 19 19 18 17 18 18 18 18 18 17 18 18 18 18 18 17 17 17 17 17 17 17 17 17 17 17 17 17 17 17 17 17 17 17 17 17
19 19 19 17 18 18 19 19 19 20 20 20 19 19 18 17 18 18 18 18 18 18 17 17 18 18 17 17 17 17 17 17 17 17 17 17 16 16 16 16 16 16 16 16 16 16 16 17 17
19 19 19 17 19 19 19 19 19 20 20 20 19 18 18 18 18 18 18 18 18 18 17 17 18 18 17 17 17 17 17 17 17 16 16 16 16 16 16 16 16 16 16 16 16 16 16 16 16
19 19 17 18 19 19 19 20 20 20 19 19 19 18 17 18 18 18 18 18 18 18 17 17 17 17 17 17 17 17 16 16 16 16 16 16 16 16 15 15 15 15 15 15 16 16 16 16 16
19 17 17 18 19 19 19 20 20 19 19 19 18 17 17 18 18 18 18 18 18 18 17 17 17 17 17 17 16 16 16 16 16 16 16 16 16 15 15 15 15 15 15 15 15 15 16 16 16
18 17 18 18 19 19 20 20 19 19 19 19 18 17 17 17 18 18 18 18 18 17 17 17 17 17 17 16 16 16 16 16 16 16 15 15 15 15 15 15 15 15 15 15 15 15 15 16 16
19 16 18 18 19 19 20 20 20 19 19 19 19 17 17 18 18 18 18 17 17 17 17 17 17 17 17 16 16 16 16 16 16 16 15 15 15 15 15 15 15 15 15 15 15 15 15 15 16
19 16 17 18 19 19 20 20 20 20 19 19 19 19 18 18 18 18 18 18 17 17 17 17 17 17 17 16 16 16 16 16 16 16 15 15 15 15 15 15 15 15 15 15 15 15 15 15 15
19 17 18 18 19 19 19 20 20 19 19 18 18 19 18 18 18 18 18 18 18 18 17 17 17 17 17 17 16 16 16 16 16 16 15 15 15 15 15 15 15 15 15 15 15 15 15 15 15
18 18 18 19 19 19 20 20 20 19 18 18 18 18 18 18 18 18 18 18 18 18 18 17 17 17 17 17 16 16 16 16 16 15 15 15 15 15 15 15 15 15 15 15 15 15 15 15 15
18 18 19 19 20 20 20 20 19 19 19 19 19 19 19 19 18 18 18 18 18 18 18 18 17 17 17 17 17 16 16 16 16 15 15 15 15 15 15 15 15 15 15 15 15 15 15 15 15
18 19 19 19 19 19 19 19 19 18 19 19 19 19 19 19 19 19 19 18 18 18 18 18 17 17 17 17 17 16 16 16 16 15 15 15 15 15 15 15 14 14 14 15 15 15 15 15 15
19 19 19 19 19 19 19 18 18 18 19 19 19 19 19 19 19 19 19 18 18 18 18 18 18 17 17 17 17 16 16 16 16 15 15 15 15 15 15 14 14 14 14 14 15 15 15 15 15
19 18 18 18 19 19 19 18 17 18 19 19 19 19 19 19 19 19 19 19 19 18 18 18 18 17 17 17 17 16 16 16 16 15 15 15 15 15 15 14 14 14 14 14 14 15 15 15 15
18 18 18 18 19 19 19 17 17 18 18 18 18 18 19 19 19 19 19 19 19 18 18 18 18 17 17 17 17 16 16 16 16 15 15 15 15 15 15 14 14 14 14 14 14 15 15 15 15
17 17 18 18 18 18 18 17 17 18 18 17 18 18 19 19 19 19 19 19 19 18 18 18 18 17 17 17 17 16 16 16 16 15 15 15 15 15 15 14 14 14 14 14 14 14 15 15 15
17 17 18 18 18 18 17 16 16 17 17 17 17 18 18 19 19 19 19 19 19 18 18 18 18 17 17 17 17 16 16 16 16 15 15 15 15 15 15 14 14 14 14 14 14 14 15 15 15
18 18 17 17 18 17 17 16 16 17 17 17 17 18 18 19 19 19 19 19 19 18 18 18 18 17 17 17 17 16 16 16 15 15 15 15 15 15 15 14 14 14 14 14 14 14 15 15 15
18 17 17 17 18 17 16 16 16 16 16 17 17 17 18 18 19 19 19 19 19 18 18 18 18 17 17 17 16 16 16 16 15 15 15 15 15 15 15 15 14 14 14 14 14 14 14 14 14
18 17 17 17 17 17 17 17 16 16 17 17 17 17 18 18 19 19 19 19 19 18 18 18 18 17 17 17 16 16 16 16 15 15 15 15 15 15 15 15 15 14 14 14 14 14 14 14 14
18 18 18 17 17 16 17 16 17 16 16 16 16 17 18 18 18 18 18 19 18 18 18 18 17 17 17 16 16 16 16 16 15 15 15 15 15 15 15 14 14 14 14 14 14 14 14 14 14
18 18 17 17 16 16 16 16 16 16 16 16 16 17 17 18 18 18 18 18 18 18 18 17 17 17 17 16 16 16 16 15 15 15 15 15 15 15 14 14 14 14 14 14 14 14 14 14 14
18 17 17 16 16 17 17 16 17 15 16 16 16 16 17 18 18 18 18 18 18 18 17 17 17 17 16 16 16 16 15 15 15 15 15 15 15 15 14 14 14 14 14 14 14 14 14 14 14
17 16 16 17 16 16 16 16 16 17 16 16 16 17 17 18 18 18 18 18 18 17 17 17 17 17 16 16 16 16 15 15 15 15 15 15 15 14 14 14 14 14 14 14 14 14 14 14 14
17 17 16 16 16 16 17 16 17 17 17 17 17 17 17 17 17 18 18 18 17 17 17 17 16 16 16 16 16 15 15 15 15 15 14 14 14 14 14 14 14 14 14 14 14 13 13 13 13
17 16 16 16 16 16 16 16 17 16 16 16 16 17 17 17 17 17 17 17 17 17 17 16 16 16 16 15 15 15 15 15 15 14 14 14 14 14 14 14 14 14 14 13 13 13 13 13 13
17 16 15 16 16 16 17 17 16 16 16 15 15 16 17 17 17 17 17 17 17 17 16 16 16 16 15 15 15 15 15 14 14 14 14 14 14 14 14 14 14 13 13 13 13 13 13 13 13
17 16 15 14 15 16 16 17 17 17 16 15 15 16 17 17 17 17 17 17 16 16 16 16 15 15 15 15 15 14 14 14 14 14 14 14 14 13 13 13 13 13 13 13 13 13 13 13 12
18 17 16 17 16 15 15 16 18 16 16 16 16 17 17 17 17 17 17 16 16 16 16 16 15 15 15 15 14 14 14 14 14 14 14 13 13 13 13 13 13 12 12 12 12 12 12 12 12
Wind_Speed
4 3 2 3 5 5 2 2 1 2 2 3 5 6 7 5 4 5 0 4 6 5 7 9 11 11 12 12 12 12 12 11 11 11 11 10 10 9 9 8 8 8 7 7 7 7 7 7 7
1 2 3 4 5 3 2 1 2 2 3 4 5 6 7 6 4 5 2 4 7 6 7 9 11 11 12 12 11 11 11 10 10 10 10 10 9 9 8 8 8 7 7 7 7 7 7 7 7
1 2 3 4 4 3 1 1 2 3 4 3 4 5 5 4 3 3 3 6 7 6 7 10 11 11 11 11 10 10 10 10 10 9 9 9 9 9 8 8 8 7 7 7 7 7 6 6 6
3 4 4 5 4 0 1 1 3 4 4 5 4 5 4 3 2 4 6 7 7 5 7 10 11 10 10 10 10 10 9 9 9 8 8 8 8 8 8 8 8 7 7 7 7 7 6 6 6
4 4 5 4 2 2 1 1 2 3 3 4 5 6 4 5 7 9 8 7 7 5 6 8 9 9 9 9 8 8 8 8 8 7 7 7 7 7 7 7 7 7 7 7 7 7 7 7 6
4 4 4 2 1 2 2 1 3 5 5 4 5 5 3 3 6 6 6 6 5 5 6 6 8 8 8 7 7 7 6 7 7 7 7 6 6 6 6 6 6 7 7 7 7 7 7 7 7
4 4 3 2 1 2 2 3 4 4 5 3 4 5 3 1 3 5 6 6 5 5 5 5 5 6 6 6 6 5 5 5 6 6 6 7 7 7 7 7 7 7 7 7 7 8 8 7 7
4 4 3 2 2 2 2 3 4 4 4 3 4 6 5 4 4 6 6 6 5 4 3 3 4 5 5 5 4 4 5 5 6 7 7 7 8 9 9 9 8 7 7 8 8 8 8 8 8
3 4 3 1 3 1 2 3 3 4 5 4 3 4 5 8 8 8 6 4 3 2 2 2 2 3 4 4 4 5 6 6 7 7 8 8 8 9 9 9 9 9 8 9 8 8 8 8 8
4 3 2 1 2 2 2 4 3 5 5 4 6 6 8 9 8 7 6 4 2 2 1 0 1 1 2 3 5 5 5 6 7 7 7 7 7 8 8 10 10 10 10 10 10 10 9 8 8
3 3 2 1 2 2 2 4 3 6 4 4 8 9 8 8 7 6 5 4 4 2 1 1 1 1 1 2 3 4 5 5 6 7 6 6 7 7 8 9 9 10 10 9 9 9 8 7 6
3 1 2 1 2 2 2 4 5 4 2 4 8 9 8 8 7 6 6 4 2 2 2 0 2 1 1 2 2 3 3 4 5 5 6 5 4 5 5 5 7 7 7 7 7 6 7 6 6
2 2 3 4 6 5 7 7 6 4 4 7 9 9 8 7 5 4 4 3 3 2 1 1 2 2 2 2 2 3 3 3 4 5 6 5 3 2 3 4 5 6 6 5 5 5 5 5 5
2 4 5 5 5 4 8 6 5 3 4 7 8 6 5 5 5 3 3 3 3 3 2 2 2 2 3 2 2 2 2 3 4 5 5 5 4 3 3 3 4 5 6 5 4 4 4 3 3
3 5 6 4 3 2 6 7 4 2 5 6 5 4 3 2 3 3 4 4 4 3 3 3 3 3 3 2 2 2 2 3 3 4 5 5 5 4 3 3 3 4 6 6 5 5 4 4 4
4 5 4 3 2 2 5 4 3 2 6 6 4 2 2 1 1 1 3 3 3 3 3 2 3 3 3 2 3 3 3 4 3 4 5 5 5 4 4 3 3 5 6 4 3 4 4 4 4
5 4 3 2 3 3 5 4 1 2 5 5 3 2 2 1 1 0 2 3 3 4 3 3 3 3 3 3 4 4 4 4 4 4 5 5 5 5 4 2 3 5 4 4 4 4 3 3 4
2 3 2 2 3 5 7 5 3 2 4 4 2 2 2 2 1 1 2 2 3 3 4 4 4 4 4 3 3 3 4 3 4 4 5 5 5 5 4 3 4 4 3 4 4 4 3 2 3
6 5 3 2 2 5 7 5 3 2 3 3 2 2 2 1 0 1 2 3 4 4 4 3 3 3 3 2 2 2 2 2 3 3 5 6 6 5 4 2 3 3 3 3 3 2 4 4 3
6 6 3 4 4 4 6 5 3 3 1 1 2 2 2 2 2 3 3 4 4 3 3 3 3 2 2 2 2 1 1 1 1 3 5 7 7 6 4 3 3 3 3 4 4 3 2 3 4
3 5 5 5 3 4 4 3 3 2 2 2 1 1 1 3 3 3 3 3 3 3 3 3 3 3 3 3 3 3 3 3 4 4 4 5 7 7 6 5 3 3 3 3 3 3 3 2 3
1 3 6 6 5 2 2 1 3 1 2 1 1 0 1 1 2 2 3 3 2 2 3 3 4 4 3 3 4 4 3 2 2 2 3 4 7 7 7 6 5 4 3 3 3 2 1 1 2
4 5 6 4 5 4 3 3 4 1 3 4 3 3 2 2 3 3 3 3 3 3 4 4 5 5 4 4 4 5 3 1 1 2 4 5 5 7 7 6 5 4 4 4 4 3 2 1 1
8 8 7 5 4 2 1 3 5 5 6 5 4 4 3 3 3 3 3 4 4 4 4 4 5 5 4 4 4 4 4 3 3 3 4 4 4 4 6 7 5 4 3 4 4 3 3 2 1
5 7 3 2 2 2 1 2 7 6 5 6 7 6 4 3 4 4 5 4 4 4 4 4 5 4 3 4 4 3 3 3 3 2 2 3 3 3 5 5 4 4 4 4 4 4 4 3 2
3 6 6 5 4 2 1 4 6 3 3 4 5 5 5 4 4 5 5 4 4 4 4 4 4 3 3 3 3 3 3 2 2 2 1 1 1 2 3 4 4 4 5 5 4 3 3 3 3
5 3 5 6 3 1 4 5 5 1 2 4 5 6 6 5 5 5 5 4 4 4 4 4 4 3 3 3 3 3 3 2 2 2 2 2 2 2 3 4 4 4 4 4 3 3 4 4 3
5 7 5 5 5 2 3 4 5 6 7 7 7 8 7 6 5 5 4 4 4 4 3 3 4 3 2 2 2 2 2 2 2 2 3 2 2 3 3 4 4 4 4 4 4 3 4 4 4
5 4 4 4 4 5 3 7 6 10 11 12 11 9 9 8 7 6 4 4 4 3 4 3 3 3 2 2 2 2 2 2 3 2 2 2 2 3 3 3 3 4 4 4 4 4 4 4 5
6 7 7 5 4 4 4 7 4 6 9 10 10 8 8 7 6 5 5 4 4 4 3 3 3 3 2 2 2 2 2 2 2 1 1 2 2 2 2 3 3 3 4 4 3 4 4 4 4
Wind_Direction
353 41 67 55 58 54 43 351 73 54 45 46 61 73 84 68 79 116 136 123 121 114 117 117 115 111 104 99 96 93 89 85 81 79 78 75 73 71 69 67 65 60 56 52 49 45 46 42 39
53 52 49 57 78 66 8 349 83 91 133 115 64 64 69 66 68 97 105 121 116 114 113 116 112 107 103 99 95 91 88 85 82 78 75 71 68 64 61 59 56 52 48 46 44 36 37 34 31
67 49 68 66 81 124 133 96 106 97 101 90 72 54 63 75 92 101 131 122 108 105 112 117 112 107 102 98 95 92 88 84 81 77 72 68 65 61 56 52 50 46 40 37 34 27 26 22 19
73 44 51 67 70 24 133 133 121 113 69 52 83 64 58 40 103 119 114 110 105 100 113 118 113 108 103 99 98 94 90 84 79 73 67 62 58 55 50 46 42 39 34 29 25 20 17 11 8
60 72 61 60 47 14 26 71 94 91 65 56 75 79 46 7 88 106 110 109 110 100 106 118 116 112 108 106 102 95 87 80 73 67 60 52 45 39 34 32 31 29 27 24 18 11 8 5 2
52 65 83 92 44 37 42 77 84 76 81 79 78 83 53 36 96 113 112 108 107 102 89 97 113 113 110 105 98 90 81 73 65 56 47 39 30 20 13 12 14 15 14 11 9 5 3 359 359
95 87 107 119 83 55 64 83 82 92 90 86 101 91 91 104 122 114 102 92 86 86 82 74 77 87 94 94 90 78 65 59 49 40 31 26 22 16 10 7 4 1 360 1 3 2 0 358 357
114 98 81 71 103 67 20 86 87 88 91 90 95 121 155 189 126 96 83 75 75 70 64 60 58 57 49 45 54 53 46 39 34 29 20 21 21 16 12 8 4 360 358 1 2 2 4 4 3
87 73 98 147 144 113 38 83 67 66 86 62 68 119 145 132 114 101 86 66 69 86 45 48 45 44 35 21 26 33 31 30 29 22 17 21 21 15 13 11 11 10 7 7 8 7 7 8 5
79 108 165 185 159 126 75 92 105 80 74 71 72 79 105 118 126 131 139 154 175 214 248 204 34 24 22 16 28 27 28 26 29 27 27 33 34 27 25 20 21 19 17 16 15 12 13 11 4
98 142 159 106 128 120 95 89 92 107 98 140 137 134 126 129 138 153 164 176 198 211 233 198 165 31 36 29 28 29 29 29 32 34 40 47 46 37 29 23 19 17 17 16 11 12 11 8 1
103 94 125 113 115 94 81 92 82 75 131 141 138 140 138 145 160 169 172 184 178 175 218 179 126 101 66 67 52 41 35 36 35 33 41 49 44 32 24 19 10 12 8 8 8 5 3 7 6
93 93 77 75 76 84 78 75 91 53 68 106 118 128 144 154 163 169 159 153 154 166 172 130 133 125 114 89 60 61 47 48 43 42 43 56 56 37 25 13 13 9 7 7 3 2 3 5 5
96 91 75 64 69 61 89 68 69 55 90 108 119 139 153 158 162 146 144 158 176 176 161 132 126 124 118 97 79 65 57 58 56 46 42 56 62 55 35 16 11 7 4 2 3 1 1 0 3
79 85 61 43 71 83 91 53 36 53 112 115 128 142 142 157 155 165 175 177 178 164 139 137 132 115 111 101 91 84 63 57 50 39 39 47 54 51 42 24 7 357 359 4 10 8 12 15 14
62 67 66 16 53 70 107 97 18 59 116 120 131 134 131 147 135 159 165 176 166 146 134 136 120 112 102 88 80 69 55 51 36 32 35 34 41 45 43 27 2 356 6 12 10 11 13 15 13
44 92 103 40 30 73 95 115 24 50 111 113 121 141 148 126 43 274 158 166 161 149 133 109 94 100 96 82 73 65 55 42 25 25 24 20 29 38 44 31 4 5 13 12 11 21 20 11 5
126 110 93 73 28 78 89 86 56 62 106 107 104 123 150 157 235 215 133 132 128 127 120 112 96 88 93 80 63 43 35 21 21 19 12 11 16 25 34 27 10 13 19 13 13 18 19 14 360
136 120 98 59 41 79 89 82 58 65 97 100 96 116 145 167 328 77 89 100 99 90 99 103 102 95 94 79 73 58 23 354 356 4 9 12 14 19 25 19 9 13 20 8 7 14 21 13 0
115 109 97 73 55 86 88 65 48 55 107 159 161 154 151 128 81 75 81 88 98 101 99 97 107 102 89 93 103 107 94 15 341 353 15 19 17 16 20 24 11 7 12 14 17 27 24 13 19
116 153 153 133 94 65 92 32 15 0 25 49 63 116 143 154 153 136 109 104 96 100 117 115 110 92 80 87 85 65 44 26 17 9 3 3 14 20 23 19 14 9 21 8 3 20 50 23 9
143 179 148 135 114 58 96 135 296 311 335 314 287 168 184 165 151 147 136 124 121 126 105 98 94 85 76 83 92 91 82 51 353 340 346 358 18 22 23 23 23 19 16 8 356 27 40 67 13
140 109 101 101 101 76 46 114 278 286 248 249 239 230 214 181 162 160 156 144 125 112 106 99 91 80 73 78 94 97 88 75 10 11 20 16 11 18 20 24 24 20 17 10 8 15 31 53 53
118 89 67 52 69 68 223 154 260 224 214 214 214 210 194 161 138 131 121 114 101 93 96 98 94 77 69 78 81 102 105 89 61 39 29 15 6 7 15 21 22 17 15 14 12 14 23 24 37
98 106 77 35 28 253 224 201 249 239 212 194 191 193 184 158 141 135 129 125 119 111 109 106 103 83 69 77 75 87 101 98 90 72 45 28 13 5 357 10 10 10 8 16 21 25 20 14 15
157 134 151 170 192 259 277 240 258 262 213 170 166 167 161 157 155 153 151 148 144 135 127 122 114 101 86 83 76 71 83 91 90 90 78 53 14 338 340 359 8 11 16 23 25 23 9 14 13
131 142 153 124 118 120 268 281 300 121 139 152 157 158 172 176 167 162 153 152 154 149 150 146 136 118 104 97 88 74 77 86 91 79 65 48 16 2 4 10 10 10 17 22 25 24 10 8 3
134 140 107 120 146 211 273 262 236 213 203 190 183 186 188 178 171 165 161 166 165 159 147 137 136 136 127 111 101 94 81 90 96 81 56 34 13 11 16 18 16 14 13 16 26 17 5 17 4
127 123 118 120 149 157 224 263 225 204 197 192 195 191 187 183 180 177 173 168 154 138 137 138 139 128 120 117 104 88 75 91 96 80 46 25 14 13 16 11 18 17 13 10 19 11 12 12 2
165 170 152 156 198 177 183 263 278 212 197 188 187 186 185 181 175 170 164 153 147 147 148 152 156 152 157 149 126 110 90 96 91 65 22 21 14 5 7 12 19 12 9 6 11 360 3 1 351
Height
1500 1499 1499 1501 1503 1513 1516 1511 1507 1507 1507 1508 1507 1508 1511 1515 1519 1525 1524 1522 1524 1525 1526 1526 1527 1528 1529 1529 1530 1530 1531 1531 1531 1531 1532 1532 1531 1531 1531 1531 1531 1531 1531 1530 1530 1530 1530 1530 1530
1500 1500 1501 1501 1510 1522 1518 1510 1508 1507 1508 1509 1509 1511 1513 1517 1519 1521 1522 1524 1525 1526 1527 1528 1529 1529 1530 1530 1531 1531 1532 1532 1532 1532 1532 1532 1532 1532 1532 1531 1531 1531 1530 1530 1530 1530 1530 1530 1529
1500 1501 1503 1505 1513 1520 1516 1510 1508 1508 1509 1510 1512 1514 1516 1519 1521 1522 1524 1525 1527 1528 1529 1530 1530 1531 1531 1532 1532 1532 1533 1533 1533 1533 1533 1533 1532 1532 1532 1532 1531 1531 1530 1530 1530 1530 1529 1529 1529
1501 1503 1504 1510 1515 1513 1510 1509 1508 1509 1510 1511 1513 1517 1519 1522 1523 1524 1525 1527 1528 1529 1530 1531 1532 1532 1533 1533 1533 1534 1534 1534 1534 1534 1534 1534 1533 1533 1533 1532 1532 1531 1530 1530 1530 1530 1529 1529 1529
1502 1503 1509 1515 1514 1511 1509 1509 1509 1510 1512 1514 1514 1519 1522 1524 1525 1526 1527 1529 1530 1531 1532 1533 1533 1534 1534 1535 1535 1535 1535 1535 1535 1535 1535 1535 1534 1534 1533 1533 1532 1532 1531 1530 1530 1529 1529 1529 1529
1503 1504 1516 1520 1515 1511 1510 1510 1511 1512 1515 1516 1518 1521 1525 1527 1528 1529 1530 1531 1533 1533 1534 1535 1535 1536 1536 1536 1537 1537 1537 1537 1537 1537 1536 1536 1535 1535 1534 1533 1533 1532 1532 1531 1530 1530 1529 1529 1529
1505 1509 1516 1517 1516 1513 1512 1512 1513 1514 1516 1519 1520 1523 1527 1529 1530 1531 1532 1534 1535 1536 1536 1537 1537 1538 1538 1538 1539 1539 1539 1539 1538 1538 1537 1537 1536 1536 1535 1534 1533 1533 1532 1531 1531 1530 1529 1529 1529
1505 1510 1516 1517 1517 1516 1513 1513 1515 1517 1519 1521 1522 1524 1528 1530 1532 1533 1534 1536 1537 1538 1538 1539 1539 1540 1540 1540 1540 1540 1540 1540 1539 1539 1538 1538 1537 1536 1535 1534 1534 1533 1532 1531 1531 1530 1529 1529 1529
1506 1514 1520 1517 1516 1515 1514 1514 1517 1518 1520 1522 1523 1525 1528 1531 1533 1534 1536 1537 1538 1539 1540 1541 1541 1541 1542 1542 1542 1542 1541 1541 1540 1540 1539 1538 1538 1537 1536 1535 1534 1533 1532 1531 1530 1530 1529 1529 1528
1507 1517 1516 1513 1513 1514 1515 1516 1518 1520 1522 1524 1525 1527 1530 1532 1534 1535 1537 1538 1539 1541 1542 1542 1543 1543 1543 1543 1543 1543 1542 1542 1541 1541 1540 1539 1538 1537 1536 1535 1534 1533 1532 1531 1530 1530 1529 1529 1528
1508 1513 1512 1512 1512 1514 1515 1517 1519 1521 1525 1526 1526 1529 1531 1533 1535 1537 1538 1540 1541 1542 1543 1544 1544 1544 1545 1545 1544 1544 1543 1543 1542 1542 1541 1540 1539 1538 1537 1536 1535 1534 1532 1531 1530 1529 1529 1528 1528
1510 1511 1511 1512 1514 1515 1516 1518 1521 1523 1526 1527 1528 1530 1532 1534 1536 1538 1540 1541 1543 1544 1544 1545 1545 1546 1546 1546 1546 1545 1544 1544 1543 1543 1542 1541 1539 1538 1537 1536 1535 1534 1533 1531 1530 1529 1528 1528 1527
1510 1512 1513 1514 1515 1517 1518 1520 1522 1526 1527 1529 1531 1533 1535 1536 1538 1540 1542 1543 1544 1545 1546 1546 1546 1547 1547 1547 1547 1546 1545 1545 1544 1543 1542 1541 1540 1539 1537 1536 1535 1534 1533 1532 1530 1529 1528 1527 1527
1512 1513 1514 1516 1517 1519 1520 1524 1525 1529 1530 1531 1533 1535 1537 1538 1540 1541 1543 1544 1545 1546 1547 1547 1548 1548 1548 1548 1548 1547 1546 1546 1545 1544 1543 1542 1541 1540 1538 1537 1536 1534 1533 1532 1531 1529 1528 1527 1527
1512 1515 1518 1519 1520 1522 1522 1529 1531 1531 1532 1533 1535 1536 1538 1540 1541 1543 1544 1545 1546 1547 1548 1548 1549 1549 1549 1549 1549 1548 1548 1547 1546 1545 1544 1543 1542 1540 1539 1538 1536 1535 1533 1532 1531 1530 1529 1528 1527
1515 1520 1527 1524 1522 1523 1527 1538 1534 1533 1533 1534 1536 1538 1539 1541 1542 1544 1545 1546 1547 1548 1549 1549 1550 1550 1550 1550 1550 1549 1548 1548 1547 1546 1544 1544 1543 1541 1540 1539 1537 1536 1534 1533 1531 1530 1529 1528 1527
1523 1529 1530 1528 1524 1525 1529 1537 1535 1534 1534 1535 1537 1539 1540 1541 1543 1544 1545 1547 1548 1549 1550 1550 1550 1551 1551 1551 1551 1550 1549 1548 1547 1546 1545 1545 1544 1542 1541 1540 1538 1537 1535 1534 1532 1531 1530 1529 1528
1531 1531 1531 1531 1528 1528 1532 1537 1536 1536 1536 1537 1538 1539 1540 1541 1543 1544 1546 1547 1548 1549 1550 1551 1551 1551 1551 1551 1551 1551 1550 1549 1548 1547 1546 1545 1544 1543 1542 1541 1539 1538 1536 1534 1533 1532 1531 1530 1529
1524 1529 1533 1533 1529 1532 1536 1538 1538 1537 1537 1538 1539 1539 1540 1541 1543 1544 1546 1547 1548 1549 1550 1551 1551 1551 1551 1551 1551 1551 1550 1549 1549 1548 1547 1546 1545 1544 1543 1541 1540 1539 1537 1535 1534 1533 1532 1531 1530
1524 1531 1535 1534 1532 1534 1539 1540 1539 1538 1538 1539 1539 1539 1540 1542 1543 1544 1546 1547 1548 1549 1550 1551 1551 1551 1551 1551 1551 1551 1550 1550 1549 1548 1548 1547 1546 1545 1543 1542 1541 1540 1538 1537 1535 1534 1533 1532 1531
1527 1531 1534 1536 1535 1536 1539 1544 1542 1540 1539 1539 1539 1540 1541 1542 1543 1544 1546 1547 1548 1549 1550 1551 1551 1552 1552 1551 1551 1551 1550 1550 1549 1549 1548 1547 1546 1545 1544 1543 1542 1541 1539 1538 1536 1535 1534 1533 1533
1530 1526 1529 1533 1540 1547 1543 1555 1545 1542 1541 1540 1539 1540 1541 1542 1543 1544 1545 1547 1548 1550 1551 1551 1551 1552 1551 1551 1551 1551 1550 1549 1549 1549 1548 1548 1547 1546 1545 1544 1543 1541 1540 1539 1538 1536 1535 1534 1534
1526 1526 1530 1535 1541 1548 1548 1554 1550 1543 1542 1540 1539 1539 1540 1541 1542 1544 1545 1547 1548 1550 1550 1551 1551 1551 1551 1551 1551 1550 1550 1549 1549 1549 1548 1548 1547 1546 1545 1544 1543 1542 1541 1540 1538 1537 1536 1535 1534
1524 1530 1535 1540 1545 1556 1551 1554 1552 1545 1539 1537 1537 1538 1539 1540 1542 1543 1545 1547 1548 1549 1550 1551 1551 1551 1551 1550 1550 1550 1549 1549 1549 1548 1548 1548 1547 1546 1546 1545 1544 1542 1541 1540 1539 1538 1537 1535 1534
1527 1539 1552 1555 1560 1559 1549 1551 1548 1534 1532 1533 1534 1536 1537 1539 1541 1542 1544 1546 1547 1549 1549 1550 1550 1550 1550 1550 1550 1549 1549 1549 1548 1548 1548 1547 1547 1546 1545 1545 1544 1543 1541 1540 1539 1538 1537 1536 1535
1530 1535 1552 1561 1563 1559 1550 1551 1540 1530 1529 1530 1532 1534 1536 1538 1540 1542 1543 1545 1547 1548 1549 1549 1550 1550 1550 1549 1549 1549 1549 1548 1548 1548 1548 1547 1547 1546 1545 1545 1544 1542 1541 1540 1539 1538 1537 1535 1534
1530 1535 1536 1548 1553 1558 1554 1545 1535 1529 1529 1530 1531 1533 1535 1537 1539 1541 1543 1544 1546 1547 1548 1549 1549 1549 1549 1549 1549 1548 1548 1548 1548 1548 1547 1547 1546 1546 1545 1544 1543 1542 1541 1540 1539 1537 1536 1535 1534
1525 1530 1541 1548 1558 1562 1552 1547 1542 1531 1529 1529 1530 1531 1533 1535 1538 1540 1542 1544 1545 1546 1547 1548 1549 1549 1549 1548 1548 1548 1548 1548 1548 1547 1547 1546 1546 1545 1545 1544 1542 1541 1540 1539 1538 1536 1535 1534 1533
1528 1532 1537 1546 1548 1558 1559 1548 1522 1521 1521 1524 1525 1528 1530 1533 1535 1538 1540 1542 1544 1545 1546 1547 1548 1548 1548 1548 1547 1547 1547 1547 1547 1547 1546 1546 1545 1545 1544 1543 1542 1540 1539 1538 1537 1536 1534 1533 1532
1519 1524 1533 1542 1546 1549 1553 1543 1515 1515 1516 1519 1522 1525 1528 1531 1534 1536 1539 1541 1542 1543 1545 1546 1546 1547 1547 1547 1547 1546 1546 1546 1546 1546 1546 1546 1545 1544 1543 1542 1541 1540 1539 1537 1536 1534 1533 1532 1530